Miscellaneous Local Product
Issued by NWS Hastings, NE

Home | Current Version | Previous Version | Text Only | Print | Product List | Glossary Off
Versions: 1 2 3 4 5 6 7 8 9 10 11 12 13 14 15 16 17 18 19 20 21 22 23 24 25 26 27 28 29 30 31 32 33 34 35 36 37 38 39 40 41 42 43 44 45 46 47 48 49 50

000
AXUS43 KGID 172202
MISGRI

GID CWA HOURLY WEATHER ROUNDUP
NATIONAL WEATHER SERVICE HASTINGS NE
500 PM CDT TUE OCT 17 2017

NOTE: "FAIR" INDICATES FEW OR NO CLOUDS BELOW 12,000 FEET WITH NO
SIGNIFICANT WEATHER AND/OR OBSTRUCTIONS TO VISIBILITY.

...SOUTH CENTRAL NEBRASKA...

CITY           SKY/WX    TMP DP  RH WIND       PRES   REMARKS
GRAND ISLAND   SUNNY     77  35  21 S5        29.99F
HASTINGS       SUNNY     79  34  19 CALM      30.01F
KEARNEY        SUNNY     79  34  19 S3        30.00F
ORD            SUNNY     77  32  19 S9        29.96F
YORK           SUNNY     75  45  33 SE7       30.00F
AURORA         SUNNY     78  37  22 CALM      29.99F
LEXINGTON      SUNNY     78  35  20 S8        29.99F
HOLDREGE       SUNNY     79  36  21 CALM      30.00F
HEBRON         SUNNY     76  42  29 S7        30.02S

...NEBRASKA PANHANDLE...

CITY           SKY/WX    TMP DP  RH WIND       PRES   REMARKS
CHADRON        SUNNY     79  14   8 SW8       29.91F
ALLIANCE       SUNNY     76  15  10 W15       29.98F
SCOTTSBLUFF    SUNNY     78  14   9 W12       29.99F
SIDNEY         SUNNY     79  13   8 SW16G26   30.03F

...WESTERN AND NORTH CENTRAL NEBRASKA...

CITY           SKY/WX    TMP DP  RH WIND       PRES   REMARKS
VALENTINE      SUNNY     76  24  14 SW13      29.92F
AINSWORTH      SUNNY     77  36  22 S8        29.94F
ONEILL         SUNNY     74  42  30 S8        29.96F
BROKEN BOW     SUNNY     74  38  27 S9        29.98F
IMPERIAL       SUNNY     80  13   8 SW10G20   30.02F
NORTH PLATTE   SUNNY     79  30  16 SW7       29.98F
MCCOOK         SUNNY     80  29  15 S9        30.01F

...EASTERN NEBRASKA...

CITY           SKY/WX    TMP DP  RH WIND       PRES   REMARKS
NORFOLK        SUNNY     78  36  21 SE7       29.95F
SO SIOUX CITY  SUNNY     75  46  35 SE6       29.96F
TEKAMAH        SUNNY     72  43  35 S9        29.99F
COLUMBUS       SUNNY     77  40  26 CALM      29.99F
ALBION         SUNNY     78  41  26 CALM      29.98F
OMAHA EPPLEY   MOSUNNY   72  45  37 S9        30.01S
OFFUTT AFB     SUNNY     72  45  37 S6        30.00F
MILLARD        SUNNY     73  47  40 S6        30.01S
LINCOLN        SUNNY     73  46  38 S7        30.01F
NEBRASKA CITY  SUNNY     72  46  40 SW12      30.02F
BEATRICE       SUNNY     71  48  43 S8        30.02F
FALLS CITY     SUNNY     73  46  38 S10       30.02F

...NORTHERN KANSAS...

CITY           SKY/WX    TMP DP  RH WIND       PRES   REMARKS
GOODLAND       SUNNY     79  28  15 S9        30.06S
HILL CITY      SUNNY     81  33  17 S6        30.02F
NORTON         CLEAR     79  23  12 SE7       30.01S
PHILLIPSBURG   SUNNY     81  30  16 E6        30.01F
SMITH CENTER   SUNNY     79  36  21 S5        30.02S
HAYS           SUNNY     81  36  19 S6        30.01F
RUSSELL        SUNNY     80  44  27 S12       30.01S
CONCORDIA      SUNNY     74  47  38 S7        30.02F
SALINA         SUNNY     76  49  38 S10       30.03S
TOPEKA         SUNNY     75  46  35 S13       30.05F



USA.gov is the U.S. government's official web portal to all federal, state and local government web resources and services.